TimeEDT,TemperatureF,Dew PointF,Humidity,Sea Level PressureIn,VisibilityMPH,Wind Direction,Wind SpeedMPH,Gust SpeedMPH,PrecipitationIn,Events,Conditions,WindDirDegrees,DateUTC
12:51 AM,60.1,59.0,96,30.13,10.0,Calm,Calm,-,N/A,,Clear,0,2013-06-20 04:51:00
1:51 AM,59.0,59.0,100,30.13,10.0,Calm,Calm,-,N/A,,Clear,0,2013-06-20 05:51:00
2:51 AM,57.9,57.9,100,30.14,8.0,Calm,Calm,-,N/A,,Clear,0,2013-06-20 06:51:00
3:51 AM,57.9,57.9,100,30.13,6.0,Calm,Calm,-,N/A,,Clear,0,2013-06-20 07:51:00
4:39 AM,57.2,57.2,100,30.21,7.0,Calm,Calm,-,N/A,,Mostly Cloudy,0,2013-06-20 08:39:00
4:51 AM,60.1,60.1,100,30.13,7.0,SSE,3.5,-,N/A,,Overcast,150,2013-06-20 08:51:00
5:51 AM,61.0,61.0,100,30.15,5.0,SSE,4.6,-,N/A,,Mostly Cloudy,150,2013-06-20 09:51:00
6:00 AM,60.8,60.8,100,30.23,4.0,SE,6.9,-,N/A,,Scattered Clouds,140,2013-06-20 10:00:00
6:33 AM,62.6,62.6,100,30.24,3.0,SE,6.9,-,N/A,,Partly Cloudy,140,2013-06-20 10:33:00
6:51 AM,62.1,62.1,100,30.17,3.0,Variable,4.6,-,N/A,,Partly Cloudy,0,2013-06-20 10:51:00
7:51 AM,64.0,63.0,96,30.18,5.0,SSE,6.9,-,N/A,,Clear,150,2013-06-20 11:51:00
8:51 AM,66.9,64.0,90,30.20,7.0,SE,6.9,-,N/A,,Clear,130,2013-06-20 12:51:00
9:51 AM,70.0,64.9,84,30.21,10.0,Calm,Calm,-,N/A,,Mostly Cloudy,0,2013-06-20 13:51:00
10:01 AM,69.8,64.4,83,30.28,10.0,Calm,Calm,-,N/A,,Mostly Cloudy,0,2013-06-20 14:01:00
10:44 AM,69.8,62.6,78,30.29,10.0,Calm,Calm,-,N/A,,Scattered Clouds,0,2013-06-20 14:44:00
10:51 AM,72.0,64.9,78,30.21,10.0,Calm,Calm,-,N/A,,Scattered Clouds,0,2013-06-20 14:51:00
11:18 AM,71.6,64.4,78,30.29,10.0,North,4.6,-,N/A,,Mostly Cloudy,350,2013-06-20 15:18:00
11:27 AM,73.4,64.4,73,30.29,10.0,North,3.5,-,N/A,,Scattered Clouds,10,2013-06-20 15:27:00
11:51 AM,75.9,64.0,67,30.21,10.0,East,4.6,-,N/A,,Scattered Clouds,80,2013-06-20 15:51:00
12:51 PM,75.9,64.0,67,30.20,10.0,East,6.9,-,N/A,,Partly Cloudy,90,2013-06-20 16:51:00
1:51 PM,77.0,61.0,58,30.19,10.0,ENE,4.6,-,N/A,,Scattered Clouds,60,2013-06-20 17:51:00
2:51 PM,75.0,63.0,66,30.19,10.0,SE,6.9,-,N/A,,Mostly Cloudy,130,2013-06-20 18:51:00
3:51 PM,77.0,63.0,62,30.18,10.0,SE,4.6,-,N/A,,Mostly Cloudy,140,2013-06-20 19:51:00
4:51 PM,75.9,63.0,64,30.17,10.0,SE,8.1,-,N/A,,Scattered Clouds,130,2013-06-20 20:51:00
5:51 PM,75.9,62.1,62,30.17,10.0,ESE,4.6,-,N/A,,Scattered Clouds,110,2013-06-20 21:51:00
6:51 PM,75.0,64.0,69,30.17,10.0,NE,3.5,-,N/A,,Scattered Clouds,40,2013-06-20 22:51:00
7:51 PM,73.0,61.0,66,30.18,10.0,NNE,5.8,-,N/A,,Overcast,20,2013-06-20 23:51:00
8:51 PM,71.1,59.0,66,30.19,10.0,Calm,Calm,-,N/A,,Scattered Clouds,0,2013-06-21 00:51:00
9:51 PM,68.0,60.1,76,30.19,10.0,ENE,3.5,-,N/A,,Clear,60,2013-06-21 01:51:00
10:51 PM,68.0,63.0,84,30.21,10.0,SE,5.8,-,N/A,,Overcast,130,2013-06-21 02:51:00
11:51 PM,66.9,63.0,87,30.19,10.0,SE,5.8,-,N/A,,Clear,130,2013-06-21 03:51:00